Temperature
21 21 21 21 24 24 23 23 23 23 23 21 21 22 22 21 21 20 17 16 16 16 16 16 17 17 17 17 17 17 17 17 17 17 17 17 17 17 17 17 17 17 18 18 18 18 18 18 18
21 21 21 23 25 24 23 23 23 23 22 21 21 21 21 20 18 18 16 16 16 16 16 16 17 17 17 17 17 17 17 17 17 17 17 17 17 17 17 17 17 17 17 17 17 18 18 18 17
21 21 22 25 24 24 23 23 23 22 21 21 21 21 20 19 18 17 16 16 16 16 16 16 17 17 17 17 17 17 17 17 17 17 17 17 17 17 17 17 17 17 17 17 17 17 17 17 17
21 22 23 25 23 23 23 23 23 22 21 21 21 21 19 17 17 17 16 16 16 16 16 16 16 17 17 17 17 17 16 17 17 17 17 17 17 17 17 17 17 17 17 17 17 17 17 17 17
21 23 24 24 23 23 23 23 23 23 22 21 21 21 19 17 17 17 16 16 16 16 16 16 16 16 16 16 16 16 17 17 17 17 17 17 17 17 17 17 17 17 17 17 17 17 17 17 17
23 25 24 23 23 23 23 22 22 23 22 21 21 21 19 17 17 16 16 16 16 16 16 16 16 16 16 16 16 16 16 16 16 16 16 16 16 17 17 16 16 17 17 17 17 17 17 17 17
24 24 24 23 23 22 23 22 23 23 22 21 21 21 19 17 17 16 16 16 16 16 16 16 16 16 16 16 16 16 16 16 16 16 16 16 16 16 16 16 16 16 16 16 16 17 17 17 17
23 25 24 23 23 23 23 22 22 22 22 20 21 21 20 17 17 16 16 16 16 16 16 16 16 16 16 16 16 16 16 16 16 16 16 16 16 16 16 16 16 16 16 16 16 16 16 16 16
22 24 23 23 23 23 22 22 21 21 21 20 20 20 19 17 17 17 17 16 16 16 16 16 16 16 15 15 16 16 16 16 16 16 16 16 15 15 15 16 16 16 16 16 16 16 16 16 16
24 24 24 24 24 24 23 22 22 22 21 21 20 18 18 17 17 17 17 17 17 16 16 16 16 15 15 15 15 15 15 15 15 15 15 15 15 15 15 16 16 16 16 16 16 16 16 16 15
24 24 24 23 23 23 23 22 22 22 22 22 20 19 18 17 17 18 18 17 17 16 16 16 16 16 15 15 15 15 15 15 15 15 15 15 15 15 15 15 15 15 15 15 15 15 15 15 15
24 23 23 23 22 22 22 22 22 22 22 21 20 19 18 18 18 18 18 17 17 16 16 16 16 16 15 15 15 15 15 15 15 15 15 15 15 15 15 15 15 15 15 15 15 15 15 15 15
23 23 22 22 21 22 22 22 22 21 20 20 19 19 19 18 18 18 18 17 17 16 16 16 16 15 15 15 15 15 15 15 15 15 15 15 15 15 15 15 15 15 15 15 15 15 15 15 15
23 23 22 22 22 22 22 22 22 21 20 20 19 19 19 19 18 18 18 17 17 17 16 16 16 15 15 15 15 15 15 15 15 15 14 14 14 15 14 14 14 14 14 14 14 14 15 15 15
22 23 23 22 22 22 22 22 22 21 20 20 20 19 19 18 18 18 18 17 17 17 16 16 16 15 15 15 15 15 15 15 15 15 14 14 14 14 14 14 14 14 14 14 14 14 14 14 14
23 23 23 23 22 22 22 23 23 20 20 20 20 20 19 18 18 18 18 17 17 17 16 16 16 16 15 15 15 15 15 15 14 14 14 14 14 14 14 14 14 14 14 14 14 14 14 14 14
23 23 23 23 23 22 22 23 23 20 20 21 20 20 19 19 18 18 18 17 17 17 16 16 16 16 15 15 15 15 15 14 14 14 14 14 14 14 14 14 14 14 14 14 14 14 14 14 14
23 23 23 23 23 22 22 23 23 21 21 21 21 20 20 19 19 18 17 17 17 17 16 16 16 16 15 15 15 15 14 14 14 14 14 14 14 14 14 13 13 13 13 13 13 13 13 13 13
23 23 23 23 23 22 23 23 23 22 21 21 21 20 20 19 19 18 17 17 17 16 16 16 16 16 15 15 15 15 14 14 14 14 14 14 13 13 13 13 13 13 13 13 13 13 13 13 13
23 23 23 23 22 22 23 23 23 22 21 21 21 21 20 19 18 17 17 17 17 16 16 16 16 16 15 15 15 14 14 14 14 14 14 13 13 13 13 13 13 13 13 13 13 13 13 13 13
23 23 23 23 22 22 22 23 23 22 21 20 20 20 20 19 19 18 17 17 17 17 17 16 16 16 15 15 15 15 14 14 14 14 14 13 13 13 13 13 13 13 12 12 12 12 12 12 12
23 23 22 22 22 22 22 22 23 23 22 21 20 20 20 19 18 18 17 17 17 17 16 16 16 16 15 15 15 14 14 14 14 14 13 13 13 13 13 13 12 12 12 12 12 12 12 12 12
22 22 22 22 22 22 22 22 23 22 22 22 21 20 20 19 18 18 17 17 17 17 16 16 16 15 15 15 15 14 14 14 14 14 13 13 13 13 13 12 12 12 12 12 12 12 12 12 12
22 22 21 21 22 22 22 22 23 23 22 22 22 21 20 19 18 18 17 17 17 17 16 16 16 15 15 15 15 14 14 14 14 13 13 13 13 13 12 12 12 12 12 12 12 12 12 11 11
22 22 22 22 21 22 22 22 22 23 22 22 21 21 19 18 18 17 17 17 16 16 16 16 16 15 15 15 15 14 14 14 13 13 13 13 12 12 12 12 12 12 12 11 11 11 11 11 11
22 22 21 21 22 22 22 22 23 22 21 20 20 19 19 18 18 17 17 17 16 16 16 16 16 15 15 15 14 14 14 13 13 13 13 12 12 12 12 12 12 11 11 11 11 11 11 11 11
22 22 22 22 22 21 22 22 23 22 21 20 20 19 19 18 17 17 17 17 16 16 16 16 16 15 15 14 14 14 14 13 13 13 12 12 12 12 12 12 11 11 11 11 11 11 11 11 10
22 22 22 21 21 21 22 22 22 22 22 21 20 19 18 18 17 17 17 17 16 16 16 16 15 15 15 14 14 14 13 13 13 13 12 12 12 12 11 11 11 11 11 11 11 10 11 10 10
21 21 21 21 21 21 21 22 22 22 21 21 20 19 18 17 17 16 16 16 16 16 16 15 15 15 14 14 14 14 13 13 13 13 12 12 12 11 11 11 11 11 11 10 10 10 10 10 10
21 21 21 21 21 21 21 21 21 21 20 20 19 18 17 17 16 16 16 16 16 15 15 15 15 15 14 14 14 13 13 13 13 12 12 12 12 11 11 11 11 10 10 10 10 10 10 10 10
Wind_Speed
4 2 2 2 1 3 6 5 4 5 4 5 5 4 5 6 5 5 4 4 4 4 6 7 8 8 9 9 10 11 11 11 11 11 11 11 10 10 10 10 10 10 10 10 10 9 8 8 9
2 1 2 1 1 4 6 5 6 5 6 5 5 5 5 6 5 6 5 4 4 5 6 8 8 8 9 9 10 10 11 11 11 12 11 11 11 10 10 10 10 9 9 10 10 10 9 9 9
2 1 1 1 2 4 6 6 7 7 5 3 4 4 4 5 4 4 5 4 5 6 7 9 8 9 9 9 11 11 11 11 11 11 11 11 10 10 10 10 9 9 9 9 10 11 11 10 10
2 1 1 3 6 5 5 6 6 7 4 3 4 6 5 4 3 5 6 5 6 6 7 9 8 9 10 10 10 10 10 10 10 10 10 10 9 10 10 9 9 9 9 9 10 10 10 10 9
1 1 3 5 6 5 5 5 4 4 4 4 4 6 6 4 5 7 7 6 6 6 7 8 9 9 9 10 10 10 10 10 10 10 10 10 10 9 9 9 9 9 9 9 9 9 9 9 9
1 2 3 4 6 5 5 4 4 4 5 5 5 6 5 5 6 7 7 6 6 6 6 8 9 9 9 10 10 10 10 10 10 10 10 10 10 10 9 9 9 9 9 9 9 8 9 9 9
1 2 3 5 6 5 5 4 4 4 4 4 4 5 6 7 6 7 7 6 6 6 6 6 7 8 9 10 10 10 10 11 10 10 10 10 9 9 9 9 9 9 9 9 9 9 9 9 8
1 3 4 4 6 5 6 5 3 3 4 4 3 4 6 8 8 7 7 7 6 6 5 5 6 6 7 9 10 10 10 10 10 10 10 8 8 8 8 9 10 9 9 9 9 10 10 9 9
2 3 4 4 5 5 7 6 4 3 5 4 3 3 7 11 10 8 7 6 6 5 5 4 5 5 6 7 8 7 8 8 6 8 7 5 6 7 7 10 10 9 9 9 10 9 9 8 9
2 3 3 3 3 6 8 6 6 6 6 5 6 6 9 11 10 9 7 7 6 5 4 4 4 4 5 5 5 5 6 6 6 6 6 5 6 6 6 9 9 9 9 9 9 7 5 3 5
2 2 3 3 4 5 7 6 5 6 4 5 7 10 11 11 9 8 7 6 6 5 5 4 4 4 4 4 4 4 4 5 5 5 6 5 5 5 4 4 5 6 6 6 6 4 5 5 5
2 2 2 3 5 6 6 6 6 5 2 3 6 10 12 11 9 8 7 6 6 5 5 4 4 4 4 4 4 3 3 3 4 4 5 5 4 4 4 4 4 4 4 4 4 4 5 5 5
3 3 2 3 5 5 6 6 5 4 3 5 8 10 11 10 9 8 7 6 6 5 5 4 4 3 3 3 3 3 3 3 4 4 4 5 4 4 4 4 4 4 4 3 3 4 5 5 5
3 4 4 3 5 6 6 5 5 5 6 7 9 10 10 10 9 8 7 7 6 6 5 5 4 4 3 3 2 3 3 3 3 4 4 4 4 4 3 4 4 4 3 4 3 4 4 4 4
4 4 4 4 4 4 6 6 7 6 8 9 9 10 9 9 8 8 7 6 6 6 6 5 4 3 3 3 3 3 2 3 3 3 3 4 4 4 3 3 3 3 3 3 3 4 3 3 3
5 5 5 5 5 5 7 6 5 8 10 10 9 10 10 9 9 8 7 6 6 6 6 6 4 4 3 3 3 2 2 3 3 3 3 3 4 4 4 3 3 3 3 2 2 2 2 3 3
6 5 5 5 6 5 7 6 4 8 10 10 10 10 10 10 10 8 8 7 6 6 6 6 5 5 4 4 3 3 3 2 2 2 2 3 3 3 3 2 2 2 2 2 2 2 2 3 3
5 5 5 5 5 7 9 8 5 8 10 11 11 10 10 11 10 9 8 7 6 6 6 6 6 5 5 4 3 3 2 2 2 2 2 3 2 3 3 2 2 2 2 2 2 2 2 2 2
5 6 6 4 3 7 10 10 8 9 11 12 12 12 12 11 10 9 9 8 8 7 7 7 6 6 5 4 3 2 2 2 1 2 2 2 2 2 2 1 1 1 1 2 2 2 2 2 1
7 7 7 4 3 6 9 11 9 10 12 12 13 13 12 12 11 10 10 9 9 8 8 8 7 6 5 3 3 2 2 2 1 1 1 1 1 1 1 1 1 1 1 2 2 1 1 1 1
9 8 7 6 3 6 7 9 9 9 10 11 12 12 12 12 12 12 11 10 10 9 9 7 8 7 6 5 3 3 3 2 2 2 1 1 1 1 0 1 1 0 0 1 1 0 0 0 0
8 5 6 6 7 5 5 7 5 6 8 10 12 12 13 13 12 12 11 11 10 9 8 8 8 7 6 6 5 5 3 3 2 2 2 1 1 1 1 1 0 1 0 1 1 1 1 1 1
5 3 5 6 7 8 7 7 4 3 7 9 11 12 13 13 13 13 12 11 10 9 8 8 8 7 7 6 6 5 4 3 2 2 2 1 1 1 1 1 1 0 1 1 1 1 1 0 1
5 4 4 5 6 8 6 7 5 3 5 5 6 10 11 12 12 12 10 10 9 9 8 8 8 8 7 7 7 6 5 4 4 3 2 2 1 1 1 0 1 1 1 1 1 0 0 1 1
7 6 5 5 6 5 3 6 5 2 3 5 5 6 8 10 11 11 11 11 10 10 9 9 9 8 8 8 7 6 5 5 5 3 3 2 1 1 1 1 1 1 0 1 1 1 1 1 1
8 8 6 5 5 4 4 6 3 1 3 3 4 4 6 8 10 11 11 11 11 10 10 10 9 9 8 8 7 6 5 4 3 3 3 3 2 1 2 1 1 1 1 1 1 1 1 1 1
6 8 6 7 7 6 5 4 3 2 3 3 2 3 5 7 9 10 10 10 10 10 10 10 10 9 8 8 7 6 5 5 4 4 3 2 2 2 2 2 2 2 1 1 2 1 1 1 1
6 5 5 6 5 6 5 6 4 2 2 2 2 3 4 5 7 8 9 9 9 9 9 9 9 9 8 8 6 5 5 5 4 4 4 3 3 2 2 2 2 2 2 2 2 1 1 2 1
6 6 6 6 6 6 6 2 1 2 3 3 2 2 3 4 6 7 7 8 8 8 9 9 9 8 8 7 7 6 6 5 5 4 4 4 3 3 3 3 2 2 2 2 2 2 2 3 2
6 8 8 8 8 8 7 4 1 2 3 3 2 1 2 3 4 5 6 7 8 9 9 9 9 8 7 7 7 7 6 6 5 5 5 4 4 4 3 3 3 3 2 2 2 2 2 3 2
Wind_Direction
175 182 227 242 188 101 88 87 99 106 85 71 67 71 71 49 35 75 91 74 72 78 71 70 59 68 71 69 73 74 73 75 75 75 76 76 75 74 74 75 77 77 77 76 75 75 80 82 87
168 191 238 244 151 116 98 102 104 87 101 109 87 80 77 71 61 89 101 82 81 81 75 67 61 68 74 75 74 73 73 74 76 74 74 73 71 70 70 72 75 77 76 73 73 73 85 83 84
152 247 283 113 89 91 108 113 108 104 109 118 103 73 65 76 85 97 99 106 95 86 79 73 62 69 73 78 76 72 71 71 72 71 70 68 68 69 68 68 71 74 74 74 74 74 80 81 80
207 197 164 111 98 82 105 121 124 128 113 92 113 98 85 67 87 108 118 114 101 93 84 78 64 69 70 75 77 76 73 72 72 72 71 70 69 69 68 68 68 73 73 74 75 77 79 80 80
227 201 136 118 104 100 106 119 132 119 116 110 117 108 97 88 102 119 123 112 102 94 86 85 71 69 70 73 77 79 78 75 72 70 70 70 69 68 70 70 69 70 72 74 73 74 78 80 78
186 188 153 132 122 122 126 134 143 116 113 120 124 116 102 116 122 124 121 113 104 98 92 91 85 74 73 75 76 75 75 74 71 70 69 68 66 66 67 67 71 73 74 75 73 72 77 79 75
190 160 140 137 138 144 141 144 152 132 126 124 133 122 124 134 132 130 123 117 109 102 96 90 94 95 89 79 75 75 72 71 70 71 70 69 67 65 65 66 67 71 74 75 75 76 78 79 75
190 158 151 153 155 148 148 149 139 139 116 117 148 137 140 145 145 138 130 125 117 108 97 89 87 87 92 92 81 75 73 71 72 71 69 71 80 77 70 73 67 67 71 75 77 77 77 77 75
214 192 172 164 167 149 158 158 142 131 130 130 121 95 120 140 148 144 141 135 127 118 108 99 92 88 84 86 93 90 87 81 86 84 77 73 73 74 77 65 64 65 68 72 75 78 79 84 85
206 197 171 157 163 154 164 167 157 157 150 143 136 124 135 149 156 155 152 146 142 133 120 109 98 93 90 86 92 84 82 81 70 68 67 64 65 67 71 82 73 72 75 81 78 82 92 84 87
172 178 154 162 161 159 166 169 172 174 167 169 165 156 155 161 164 162 157 149 143 138 129 122 108 102 95 93 88 81 75 76 74 66 64 61 66 75 71 79 89 84 84 81 87 89 75 72 68
153 147 162 158 162 174 175 171 180 199 153 153 163 159 163 169 171 168 162 155 151 145 136 129 123 114 102 94 88 85 80 75 73 66 59 61 61 62 65 69 65 67 69 71 73 72 72 69 69
161 161 157 160 164 173 173 182 188 192 164 153 154 161 169 174 174 170 165 160 156 151 147 137 133 124 112 98 88 87 78 73 79 71 61 60 60 63 66 69 66 62 68 75 71 71 69 64 59
140 147 150 163 174 182 186 195 202 192 173 168 167 172 177 178 177 173 173 171 166 163 158 147 145 136 128 115 105 86 81 83 76 73 64 61 62 59 55 61 60 61 64 67 70 72 65 64 61
154 164 174 179 181 187 198 212 213 184 178 180 182 180 181 183 184 186 179 177 173 167 163 155 157 151 139 120 99 87 82 81 80 74 65 63 56 57 58 54 56 58 61 66 70 72 69 67 67
191 205 204 184 192 190 218 230 186 180 190 192 190 186 187 190 195 193 186 184 178 173 169 161 160 159 145 131 120 105 90 81 80 74 62 60 57 55 59 56 52 53 61 66 68 69 70 65 55
209 222 226 193 197 201 227 246 182 188 200 201 199 195 193 191 197 195 191 189 185 179 174 168 164 159 149 138 129 109 97 89 85 75 59 51 53 51 63 58 49 52 59 67 66 77 70 70 62
213 229 237 231 198 218 236 248 213 197 209 212 206 204 201 199 198 193 191 189 186 182 178 172 165 162 148 144 137 123 112 102 88 75 62 47 45 49 60 63 57 56 63 59 59 72 69 69 70
245 248 253 253 227 234 247 253 240 213 215 218 215 210 208 207 199 191 189 189 187 184 184 178 174 170 162 160 165 159 156 145 120 81 55 58 43 45 59 55 59 54 65 64 67 71 86 81 72
241 246 250 246 229 248 262 261 250 229 223 224 222 217 213 208 199 193 193 191 191 188 190 188 184 180 176 177 178 172 162 153 125 111 86 52 40 41 57 73 84 90 81 85 79 87 82 69 12
239 246 253 260 252 240 269 260 238 227 226 226 228 226 218 210 204 197 197 195 193 192 195 194 190 186 181 173 164 152 146 151 153 157 137 65 42 56 72 78 88 96 131 132 130 146 157 273 310
241 242 252 250 255 260 253 275 249 226 223 221 221 218 218 210 207 202 198 197 198 196 194 196 192 190 183 177 180 179 186 187 186 182 157 122 81 89 102 115 127 151 165 166 171 185 231 239 263
242 237 238 248 256 265 243 262 264 219 231 229 222 216 214 209 204 202 199 198 199 194 192 194 192 190 184 188 187 197 198 191 173 171 157 159 132 102 100 113 136 168 193 192 185 217 256 278 290
195 198 204 226 246 252 246 250 271 237 248 246 228 218 211 205 200 199 196 194 194 190 187 188 190 189 185 189 192 198 195 188 180 181 174 180 160 148 122 167 176 223 225 200 205 186 173 319 321
213 238 243 231 227 246 218 245 260 293 280 267 253 226 206 200 197 194 192 190 189 188 187 187 188 188 187 190 195 197 199 195 195 191 186 190 183 178 183 194 201 217 211 195 193 193 215 253 303
216 232 248 265 262 269 219 243 262 321 292 270 254 229 202 195 196 195 193 192 190 189 189 189 190 190 187 190 193 195 196 201 203 197 193 195 200 196 186 187 182 174 177 180 181 219 237 274 270
219 223 254 269 274 273 248 248 272 259 261 252 235 209 201 192 193 194 192 192 191 189 190 192 190 190 189 191 188 188 193 197 197 197 199 198 200 192 183 179 177 171 186 197 189 212 227 256 268
242 221 223 243 263 262 254 256 264 269 283 255 224 210 205 194 191 193 191 191 191 190 188 188 190 192 190 190 189 187 193 194 199 201 203 199 195 193 189 189 183 175 189 205 211 234 232 234 236
198 210 228 241 249 265 270 256 333 301 321 313 280 233 213 198 195 194 192 190 188 184 183 185 187 189 189 191 190 189 189 192 197 204 206 205 200 196 195 195 195 195 206 216 205 231 230 248 247
238 231 231 242 244 247 267 267 65 295 305 303 297 253 204 195 191 188 186 185 184 184 184 186 187 188 188 188 190 193 187 192 198 201 202 206 206 201 200 196 202 206 217 228 229 233 241 251 263
Height
1505 1505 1505 1507 1505 1506 1513 1514 1512 1514 1516 1519 1519 1519 1519 1521 1523 1531 1532 1529 1529 1529 1529 1528 1527 1527 1526 1526 1526 1526 1526 1526 1525 1525 1525 1525 1525 1524 1524 1524 1524 1524 1524 1524 1524 1523 1522 1523 1524
1506 1506 1508 1507 1504 1512 1518 1514 1515 1516 1519 1521 1521 1522 1522 1525 1528 1530 1530 1530 1530 1530 1530 1529 1528 1528 1528 1528 1527 1527 1527 1527 1527 1527 1527 1527 1526 1526 1526 1526 1525 1525 1525 1525 1525 1522 1522 1524 1524
1507 1507 1509 1505 1507 1511 1517 1515 1516 1519 1521 1521 1522 1523 1525 1528 1530 1531 1531 1531 1531 1531 1531 1530 1529 1529 1529 1529 1529 1529 1529 1529 1529 1528 1528 1528 1528 1528 1527 1527 1527 1527 1527 1526 1526 1525 1524 1525 1526
1508 1509 1509 1507 1512 1513 1513 1515 1517 1519 1521 1522 1522 1525 1528 1531 1531 1532 1531 1532 1532 1532 1532 1531 1531 1531 1530 1530 1530 1530 1530 1530 1530 1530 1530 1530 1529 1529 1529 1529 1528 1528 1528 1528 1527 1527 1526 1527 1527
1508 1509 1507 1511 1514 1514 1515 1517 1519 1519 1521 1523 1523 1525 1529 1531 1531 1532 1533 1533 1534 1534 1533 1533 1532 1532 1532 1532 1531 1531 1531 1531 1531 1531 1531 1531 1531 1531 1530 1530 1530 1530 1529 1529 1529 1529 1529 1529 1529
1510 1507 1510 1514 1516 1516 1517 1519 1520 1520 1522 1524 1525 1526 1530 1532 1532 1533 1534 1534 1535 1535 1535 1534 1533 1533 1533 1533 1533 1533 1532 1532 1532 1532 1532 1532 1532 1532 1532 1531 1531 1531 1531 1530 1530 1530 1530 1530 1530
1510 1507 1510 1512 1516 1517 1518 1520 1520 1521 1522 1524 1525 1526 1530 1532 1533 1534 1534 1535 1536 1536 1536 1536 1536 1535 1535 1534 1534 1534 1534 1534 1534 1533 1533 1533 1533 1533 1533 1532 1532 1532 1532 1532 1531 1531 1531 1531 1531
1509 1508 1511 1512 1516 1517 1519 1521 1522 1522 1524 1526 1527 1527 1530 1533 1533 1534 1535 1536 1537 1537 1537 1537 1537 1537 1537 1537 1536 1535 1535 1535 1535 1535 1534 1534 1534 1534 1534 1534 1533 1533 1533 1533 1533 1533 1532 1532 1532
1510 1509 1512 1512 1514 1515 1519 1520 1523 1524 1525 1526 1527 1528 1530 1532 1533 1535 1536 1537 1537 1538 1538 1538 1538 1538 1539 1538 1537 1537 1537 1536 1536 1536 1536 1536 1536 1536 1535 1535 1534 1534 1534 1534 1534 1534 1533 1533 1533
1509 1509 1510 1511 1512 1514 1518 1519 1522 1523 1524 1526 1528 1529 1530 1532 1534 1535 1536 1537 1538 1539 1539 1539 1539 1539 1539 1539 1539 1539 1539 1538 1538 1538 1537 1537 1537 1536 1536 1535 1535 1535 1535 1534 1534 1534 1535 1535 1535
1508 1509 1510 1513 1514 1515 1517 1520 1521 1521 1522 1525 1527 1529 1530 1532 1534 1535 1536 1537 1538 1539 1539 1540 1540 1540 1540 1540 1540 1540 1540 1539 1539 1539 1538 1538 1538 1537 1537 1537 1536 1536 1536 1536 1535 1536 1536 1536 1536
1510 1511 1512 1514 1516 1517 1518 1519 1521 1521 1523 1525 1526 1528 1530 1532 1533 1535 1536 1537 1538 1539 1540 1540 1540 1541 1541 1541 1541 1540 1541 1540 1540 1540 1540 1539 1539 1538 1538 1537 1537 1537 1536 1536 1537 1536 1537 1537 1537
1510 1512 1514 1515 1516 1517 1518 1519 1520 1522 1524 1525 1526 1528 1530 1531 1533 1535 1536 1537 1538 1539 1540 1540 1540 1541 1541 1541 1541 1541 1541 1541 1541 1540 1540 1540 1540 1539 1539 1538 1537 1538 1537 1537 1537 1537 1537 1537 1537
1512 1513 1514 1515 1516 1517 1518 1519 1520 1521 1523 1525 1526 1528 1529 1531 1533 1535 1536 1537 1538 1539 1540 1540 1541 1541 1541 1541 1542 1542 1542 1541 1541 1541 1541 1541 1540 1540 1539 1539 1538 1538 1538 1538 1538 1538 1537 1537 1537
1513 1513 1514 1515 1515 1517 1518 1518 1517 1520 1522 1524 1525 1527 1529 1531 1532 1534 1535 1537 1538 1539 1540 1540 1541 1541 1541 1542 1542 1542 1542 1542 1542 1541 1541 1541 1541 1540 1540 1540 1539 1539 1538 1538 1538 1538 1538 1538 1538
1511 1511 1513 1513 1514 1516 1518 1515 1515 1518 1521 1522 1524 1525 1527 1529 1531 1533 1534 1536 1537 1538 1539 1540 1540 1541 1541 1541 1541 1542 1542 1542 1542 1542 1541 1541 1541 1541 1540 1540 1539 1539 1539 1538 1538 1538 1538 1538 1538
1509 1511 1511 1511 1512 1513 1514 1512 1513 1517 1518 1520 1522 1523 1525 1528 1530 1532 1533 1535 1536 1537 1539 1539 1540 1540 1541 1541 1541 1541 1542 1542 1542 1541 1541 1541 1541 1541 1540 1540 1539 1539 1539 1539 1539 1538 1538 1538 1538
1509 1509 1510 1509 1509 1511 1511 1510 1511 1515 1516 1517 1519 1521 1523 1525 1528 1530 1531 1533 1535 1536 1537 1538 1539 1540 1540 1540 1541 1541 1541 1541 1541 1541 1541 1541 1540 1540 1540 1539 1539 1539 1538 1538 1538 1538 1538 1538 1538
1505 1507 1508 1507 1507 1510 1508 1507 1507 1511 1514 1514 1516 1518 1520 1523 1526 1528 1529 1531 1533 1534 1536 1537 1538 1539 1539 1540 1540 1540 1541 1541 1541 1540 1540 1540 1540 1539 1539 1539 1539 1538 1538 1538 1537 1537 1537 1537 1538
1505 1507 1507 1506 1508 1508 1506 1505 1503 1506 1509 1510 1512 1514 1517 1520 1523 1525 1527 1529 1531 1532 1534 1536 1537 1538 1538 1539 1540 1540 1540 1540 1540 1539 1539 1539 1539 1539 1538 1538 1538 1537 1537 1537 1537 1536 1537 1537 1537
1504 1505 1505 1506 1507 1507 1507 1503 1501 1502 1505 1508 1510 1511 1514 1517 1519 1522 1524 1526 1528 1530 1532 1534 1535 1536 1537 1538 1538 1538 1538 1538 1539 1538 1538 1538 1538 1538 1537 1537 1537 1537 1537 1536 1536 1536 1536 1536 1537
1504 1502 1504 1506 1507 1505 1507 1507 1497 1496 1500 1503 1505 1508 1510 1513 1516 1519 1521 1523 1525 1528 1530 1531 1533 1534 1535 1536 1536 1537 1537 1537 1537 1537 1537 1537 1537 1537 1536 1536 1536 1536 1536 1535 1535 1535 1536 1536 1536
1502 1503 1504 1504 1505 1505 1503 1506 1495 1495 1497 1497 1500 1503 1505 1509 1512 1515 1517 1520 1523 1525 1527 1529 1531 1532 1533 1534 1534 1535 1536 1536 1536 1536 1536 1536 1536 1535 1535 1535 1535 1535 1535 1535 1534 1534 1535 1535 1535
1502 1504 1504 1504 1503 1508 1500 1503 1498 1491 1493 1493 1496 1499 1502 1505 1508 1511 1514 1517 1519 1522 1524 1526 1528 1529 1531 1532 1533 1533 1534 1534 1534 1534 1534 1534 1534 1534 1534 1533 1534 1534 1534 1533 1533 1533 1534 1534 1534
1501 1504 1508 1508 1508 1503 1498 1501 1496 1489 1491 1493 1494 1496 1499 1501 1505 1507 1510 1513 1516 1518 1521 1523 1525 1527 1528 1529 1530 1531 1532 1532 1533 1533 1533 1533 1533 1533 1532 1532 1532 1532 1532 1532 1532 1532 1533 1533 1533
1497 1499 1508 1512 1507 1499 1498 1498 1490 1490 1492 1493 1493 1495 1497 1499 1501 1504 1507 1509 1512 1515 1517 1520 1522 1524 1525 1527 1528 1529 1530 1530 1531 1531 1531 1531 1531 1531 1531 1531 1531 1531 1531 1531 1531 1532 1532 1532 1532
1496 1496 1496 1500 1500 1504 1495 1490 1487 1489 1489 1490 1491 1493 1495 1497 1499 1501 1504 1507 1509 1512 1514 1517 1519 1521 1523 1524 1525 1526 1527 1528 1529 1529 1530 1530 1530 1530 1530 1529 1529 1529 1529 1530 1530 1530 1530 1530 1530
1495 1494 1498 1501 1507 1506 1498 1494 1491 1488 1487 1488 1490 1491 1493 1495 1497 1499 1501 1504 1506 1509 1511 1514 1516 1518 1520 1521 1523 1524 1525 1526 1527 1527 1528 1528 1528 1528 1528 1528 1528 1528 1528 1528 1528 1529 1528 1529 1528
1497 1498 1496 1496 1498 1503 1501 1495 1486 1487 1487 1488 1489 1491 1492 1494 1495 1497 1499 1501 1504 1506 1508 1511 1513 1515 1517 1518 1520 1522 1523 1524 1525 1525 1526 1526 1527 1527 1527 1527 1527 1527 1527 1527 1527 1527 1527 1527 1527
1492 1491 1493 1498 1497 1496 1497 1495 1485 1487 1488 1489 1490 1490 1491 1493 1494 1495 1497 1499 1501 1503 1506 1508 1510 1512 1514 1516 1518 1519 1520 1521 1522 1523 1524 1524 1525 1525 1525 1525 1525 1525 1525 1525 1525 1525 1525 1525 1525